Regional Weather Roundup
Issued by NWS

Home | Current Version | Previous Version | Text Only | Print | Product List | Glossary Off
Versions: 1 2 3 4 5 6 7 8 9 10 11 12 13 14 15 16 17 18 19 20 21 22 23 24 25 26 27 28 29 30 31 32 33 34 35 36 37 38 39 40 41 42 43 44 45 46 47 48 49 50

000
ASUS43 KOAX 300702
RWRNE

WEATHER ROUNDUP FOR NEBRASKA
NATIONAL WEATHER SERVICE OMAHA NE
200 AM CDT SUN AUG 30 2015

NOTES: SATELLITE DATA IS BEING USED TO AUGMENT CLOUD COVER ABOVE
       12000 FEET.
       "FAIR" INDICATES FEW OR NO CLOUDS BELOW 12,000 FEET WITH NO
       SIGNIFICANT WEATHER AND/OR OBSTRUCTIONS TO VISIBILITY.

  * THESE STATIONS DO NOT REPORT WEATHER SUCH AS RAIN...SNOW OR FOG.

NEZ001>004-019>022-054>056-300800-
NEBRASKA PANHANDLE

CITY           SKY/WX    TMP DP  RH WIND       PRES   REMARKS
SCOTTSBLUFF    PTCLDY    75  41  29 S14       30.02F
ALLIANCE       PTCLDY    59  48  67 SE9       30.03S
CHADRON        PTCLDY    75  44  33 S16       29.93F
KIMBALL        PTCLDY    67  40  37 S14       30.10S
SIDNEY         CLEAR     68  39  34 S14       30.09F
$$

NEZ057>060-069>072-079>082-300800-
SOUTHWEST NEBRASKA

CITY           SKY/WX    TMP DP  RH WIND       PRES   REMARKS
NORTH PLATTE   CLEAR     68  54  60 SE7       30.05S
IMPERIAL       CLEAR     66  47  50 SW7       30.06F
LEXINGTON      CLEAR     63  58  84 S3        30.05S
MC COOK        CLEAR     66  52  60 SW5       30.05F
OGALLALA       CLEAR     65  52  62 CALM      30.06S
$$

NEZ005>010-023>029-035>040-094-300800-
NORTH CENTRAL NEBRASKA

CITY           SKY/WX    TMP DP  RH WIND       PRES   REMARKS
VALENTINE      CLEAR     69  58  67 SW12      29.98S
AINSWORTH      CLEAR     66  62  85 S13G18    30.01S
BROKEN BOW     CLEAR     64  59  83 CALM      30.05S
O`NEILL        CLEAR     65  64  96 S8        30.00F
ORD            CLEAR     55  55 100 CALM      30.02F
THEDFORD       PTCLDY    66  61  81 S7        30.05S
$$

NEZ041-046>049-061>064-073>077-083>087-300800-
SOUTH CENTRAL NEBRASKA

CITY           SKY/WX    TMP DP  RH WIND       PRES   REMARKS
GRAND ISLAND   PTCLDY    62  61  96 S9        30.06S
AURORA         CLOUDY    61  61 100 S6        30.05F FOG
HASTINGS       PTCLDY    62  60  93 S7        30.06S
HEBRON         FOG       56  55  94 CALM      30.06F VSB 1/4
HOLDREGE       CLEAR     61  58  91 S6        30.06S
KEARNEY *      CLEAR     61  57  88 S8        30.05S
YORK           CLOUDY    63  63 100 S6        30.06F FOG
$$

NEZ011>018-030>034-042>045-300800-
NORTHEAST NEBRASKA

CITY           SKY/WX    TMP DP  RH WIND       PRES   REMARKS
NORFOLK        CLOUDY    63  62  97 S10       30.03F FOG
ALBION         CLOUDY    63  61  93 S8        30.04F FOG
BLAIR          CLOUDY    63  60  91 S5        30.04F
COLUMBUS *     CLOUDY   N/A N/A N/A S5        30.05F
FREMONT        CLOUDY    65  61  89 S5        30.05F
TEKAMAH        CLOUDY    64  63  96 S3        30.04S
$$

NEZ050>053-065>068-078-088>093-300800-
SOUTHEAST NEBRASKA

CITY           SKY/WX    TMP DP  RH WIND       PRES   REMARKS
LINCOLN        CLOUDY    63  60  90 W3        30.07S FOG
OMAHA EPPLEY   PTCLDY    67  62  84 S6        30.04F
BEATRICE       CLOUDY    62  61  96 CALM      30.06S FOG
FALLS CITY     FOG       56  56 100 CALM      30.05S VSB 1/2
NEBRASKA CITY  CLEAR     59  59  99 W6        30.06S FOG
PLATTSMOUTH    CLEAR     61  59  94 SW6       30.05F
$$

NEZ044-045-051>053-067-300800-
OMAHA AREA

CITY           SKY/WX    TMP DP  RH WIND       PRES   REMARKS
EPPLEY FIELD   PTCLDY    67  62  84 S6        30.04F
BLAIR          CLOUDY    63  60  91 S5        30.04F
FREMONT        CLOUDY    65  61  89 S5        30.05F
MILLARD        PTCLDY    66  62  88 CALM      30.04F
OFFUTT AFB     CLEAR     64  62  95 S5        30.03F
PLATTSMOUTH    CLEAR     61  59  94 SW6       30.05F
WAHOO          CLOUDY    64  62  93 S8        30.05F
$$


USA.gov is the U.S. government's official web portal to all federal, state and local government web resources and services.